When you browse on this site, cookies collect data to enhance your experience and personalize the content and advertising you see.
Visit our Privacy Policy to learn more. By continuing to use the site, you agree to this use of cookies and data.
  • In United Kingdom
  • List of Countries
  • For 7 days
  • Water Temperature
  • Weather Map
  • Weather Widgets
  • user-avatar
    Login

    Hourly Weather Haskovo

    Today, 19 October, Saturday

    Time Temperature Precipitation Wind Pressure Humidity
    00:00 +18°C° 0 mm 1 mps 743 mmHg 63%
    01:00 +18°C° 0 mm 1 mps 743 mmHg 65%
    02:00 +15°C° 0 mm 0 mps 742 mmHg 68%
    03:00 +15°C° 0 mm 0 mps 742 mmHg 70%
    04:00 +15°C° 0 mm 0 mps 743 mmHg 71%
    05:00 +14°C° 0 mm 0 mps 743 mmHg 73%
    06:00 +15°C° 0 mm 0 mps 743 mmHg 71%
    07:00 +16°C° 0 mm 0 mps 743 mmHg 68%
    08:00 +16°C° 0 mm 0 mps 743 mmHg 66%
    09:00 +18°C° 0 mm 0 mps 743 mmHg 59%
    10:00 +20°C° 0 mm 0 mps 743 mmHg 53%
    11:00 +24°C° 0 mm 1 mps 744 mmHg 46%
    12:00 +25°C° 0 mm 1 mps 743 mmHg 42%
    13:00 +26°C° 0 mm 2 mps 743 mmHg 38%
    14:00 +27°C° 0 mm 2 mps 743 mmHg 34%
    15:00 +26°C° 0 mm 2 mps 743 mmHg 37%
    16:00 +26°C° 0 mm 2 mps 743 mmHg 39%
    17:00 +25°C° 0 mm 2 mps 742 mmHg 41%
    18:00 +23°C° 0 mm 2 mps 743 mmHg 46%
    19:00 +21°C° 0 mm 2 mps 743 mmHg 50%
    20:00 +21°C° 0 mm 1 mps 743 mmHg 55%
    21:00 +20°C° 0 mm 1 mps 743 mmHg 57%
    22:00 +20°C° 0 mm 1 mps 744 mmHg 60%
    23:00 +19°C° 0 mm 1 mps 744 mmHg 62%

    Tomorrow, 20 October, Sunday

    Time Temperature Precipitation Wind Pressure Humidity
    00:00 +18°C° 0 mm 1 mps 744 mmHg 66%
    01:00 +18°C° 0 mm 1 mps 744 mmHg 70%
    02:00 +16°C° 0 mm 1 mps 744 mmHg 73%
    03:00 +15°C° 0 mm 0 mps 744 mmHg 76%
    04:00 +14°C° 0 mm 0 mps 744 mmHg 78%
    05:00 +14°C° 0 mm 0 mps 744 mmHg 80%
    06:00 +15°C° 0 mm 0 mps 744 mmHg 78%
    07:00 +15°C° 0 mm 0 mps 744 mmHg 75%
    08:00 +16°C° 0 mm 0 mps 744 mmHg 72%
    09:00 +18°C° 0 mm 0 mps 745 mmHg 65%
    10:00 +22°C° 0 mm 1 mps 745 mmHg 57%
    11:00 +24°C° 0 mm 1 mps 745 mmHg 49%
    12:00 +25°C° 0 mm 1 mps 745 mmHg 46%
    13:00 +26°C° 0 mm 1 mps 745 mmHg 42%
    14:00 +27°C° 0 mm 2 mps 744 mmHg 38%
    15:00 +26°C° 0 mm 2 mps 744 mmHg 40%
    16:00 +26°C° 0 mm 2 mps 744 mmHg 42%
    17:00 +25°C° 0 mm 2 mps 744 mmHg 43%
    18:00 +23°C° 0 mm 1 mps 744 mmHg 47%
    19:00 +22°C° 0 mm 1 mps 744 mmHg 51%
    20:00 +21°C° 0 mm 1 mps 745 mmHg 55%
    21:00 +20°C° 0 mm 1 mps 745 mmHg 59%
    22:00 +19°C° 0 mm 1 mps 745 mmHg 62%
    23:00 +19°C° 0 mm 1 mps 745 mmHg 65%

    Day after tomorrow, 21 October, Monday

    Time Temperature Precipitation Wind Pressure Humidity
    00:00 +18°C° 0 mm 1 mps 745 mmHg 68%
    01:00 +16°C° 0 mm 1 mps 745 mmHg 72%
    02:00 +16°C° 0 mm 1 mps 745 mmHg 75%
    03:00 +15°C° 0 mm 1 mps 745 mmHg 77%
    04:00 +15°C° 0 mm 1 mps 745 mmHg 79%
    05:00 +14°C° 0 mm 0 mps 745 mmHg 81%
    06:00 +14°C° 0 mm 0 mps 745 mmHg 79%
    07:00 +16°C° 0 mm 1 mps 745 mmHg 76%
    08:00 +16°C° 0 mm 1 mps 745 mmHg 73%
    09:00 +19°C° 0 mm 1 mps 745 mmHg 64%
    10:00 +21°C° 0 mm 1 mps 746 mmHg 56%
    11:00 +23°C° 0 mm 2 mps 746 mmHg 48%
    12:00 +24°C° 0 mm 2 mps 746 mmHg 44%
    13:00 +25°C° 0 mm 2 mps 745 mmHg 40%
    14:00 +26°C° 0 mm 2 mps 745 mmHg 36%
    15:00 +26°C° 0 mm 2 mps 745 mmHg 37%
    16:00 +25°C° 0 mm 2 mps 745 mmHg 38%
    17:00 +24°C° 0 mm 2 mps 745 mmHg 39%
    18:00 +23°C° 0 mm 2 mps 745 mmHg 45%
    19:00 +21°C° 0 mm 1 mps 745 mmHg 50%
    20:00 +20°C° 0 mm 1 mps 745 mmHg 55%
    21:00 +19°C° 0 mm 1 mps 745 mmHg 60%
    22:00 +18°C° 0 mm 1 mps 745 mmHg 64%
    23:00 +16°C° 0 mm 1 mps 745 mmHg 69%

    22 October, Tuesday

    Time Temperature Precipitation Wind Pressure Humidity
    00:00 +16°C° 0 mm 1 mps 745 mmHg 72%
    01:00 +15°C° 0 mm 1 mps 745 mmHg 75%
    02:00 +15°C° 0 mm 1 mps 745 mmHg 77%
    03:00 +15°C° 0 mm 1 mps 745 mmHg 79%
    04:00 +14°C° 0 mm 1 mps 745 mmHg 81%
    05:00 +14°C° 0 mm 1 mps 745 mmHg 83%
    06:00 +15°C° 0 mm 1 mps 745 mmHg 79%
    07:00 +15°C° 0 mm 1 mps 745 mmHg 75%
    08:00 +16°C° 0 mm 1 mps 746 mmHg 71%
    09:00 +18°C° 0 mm 2 mps 746 mmHg 62%
    10:00 +20°C° 0 mm 2 mps 746 mmHg 53%
    11:00 +23°C° 0 mm 2 mps 746 mmHg 44%
    12:00 +25°C° 0 mm 2 mps 745 mmHg 40%
    13:00 +26°C° 0 mm 3 mps 745 mmHg 36%
    14:00 +27°C° 0 mm 3 mps 745 mmHg 32%
    15:00 +26°C° 0 mm 2 mps 745 mmHg 34%
    16:00 +25°C° 0 mm 2 mps 745 mmHg 36%
    17:00 +24°C° 0 mm 2 mps 744 mmHg 38%
    18:00 +22°C° 0 mm 1 mps 745 mmHg 41%
    19:00 +21°C° 0 mm 1 mps 745 mmHg 45%
    20:00 +20°C° 0 mm 1 mps 745 mmHg 49%
    21:00 +19°C° 0 mm 1 mps 745 mmHg 53%
    22:00 +18°C° 0 mm 1 mps 745 mmHg 57%
    23:00 +16°C° 0 mm 1 mps 745 mmHg 62%

    23 October, Wednesday

    Time Temperature Precipitation Wind Pressure Humidity
    00:00 +16°C° 0 mm 1 mps 745 mmHg 65%
    01:00 +15°C° 0 mm 1 mps 745 mmHg 68%
    02:00 +15°C° 0 mm 1 mps 745 mmHg 72%
    03:00 +14°C° 0 mm 1 mps 745 mmHg 73%
    04:00 +14°C° 0 mm 1 mps 745 mmHg 74%
    05:00 +14°C° 0 mm 1 mps 745 mmHg 75%
    06:00 +14°C° 0 mm 1 mps 745 mmHg 71%
    07:00 +15°C° 0 mm 1 mps 745 mmHg 67%
    08:00 +16°C° 0 mm 1 mps 745 mmHg 63%
    09:00 +18°C° 0 mm 2 mps 745 mmHg 53%
    10:00 +20°C° 0 mm 2 mps 745 mmHg 44%
    11:00 +22°C° 0 mm 3 mps 745 mmHg 35%
    12:00 +24°C° 0 mm 3 mps 745 mmHg 31%
    13:00 +25°C° 0 mm 3 mps 745 mmHg 26%
    14:00 +25°C° 0 mm 3 mps 745 mmHg 22%
    15:00 +24°C° 0 mm 3 mps 744 mmHg 25%
    16:00 +22°C° 0 mm 3 mps 744 mmHg 29%
    17:00 +21°C° 0 mm 2 mps 744 mmHg 32%
    18:00 +20°C° 0 mm 2 mps 744 mmHg 39%
    19:00 +19°C° 0 mm 1 mps 744 mmHg 45%
    20:00 +18°C° 0 mm 1 mps 745 mmHg 52%
    21:00 +16°C° 0 mm 1 mps 745 mmHg 58%
    22:00 +15°C° 0 mm 1 mps 745 mmHg 63%
    23:00 +15°C° 0 mm 1 mps 745 mmHg 69%

    24 October, Thursday

    Time Temperature Precipitation Wind Pressure Humidity
    00:00 +14°C° 0 mm 1 mps 745 mmHg 72%
    01:00 +14°C° 0 mm 1 mps 745 mmHg 76%
    02:00 +13°C° 0 mm 1 mps 745 mmHg 80%
    03:00 +13°C° 0 mm 1 mps 745 mmHg 79%
    04:00 +12°C° 0 mm 1 mps 745 mmHg 79%
    05:00 +12°C° 0 mm 1 mps 745 mmHg 78%
    06:00 +13°C° 0 mm 1 mps 745 mmHg 73%
    07:00 +13°C° 0 mm 1 mps 745 mmHg 67%
    08:00 +14°C° 0 mm 1 mps 745 mmHg 62%
    09:00 +16°C° 0 mm 1 mps 745 mmHg 53%
    10:00 +19°C° 0 mm 1 mps 745 mmHg 44%
    11:00 +20°C° 0 mm 2 mps 744 mmHg 34%
    12:00 +21°C° 0 mm 2 mps 744 mmHg 31%
    13:00 +23°C° 0 mm 2 mps 744 mmHg 28%
    14:00 +25°C° 0 mm 3 mps 744 mmHg 25%
    15:00 +24°C° 0 mm 2 mps 744 mmHg 29%
    16:00 +21°C° 0 mm 2 mps 743 mmHg 34%
    17:00 +20°C° 0 mm 2 mps 743 mmHg 39%
    18:00 +19°C° 0 mm 2 mps 743 mmHg 46%
    19:00 +19°C° 0 mm 1 mps 743 mmHg 52%
    20:00 +18°C° 0 mm 1 mps 744 mmHg 59%
    21:00 +16°C° 0 mm 1 mps 744 mmHg 65%
    22:00 +15°C° 0 mm 1 mps 744 mmHg 70%
    23:00 +15°C° 0 mm 1 mps 744 mmHg 75%
    Show more